AVA9575 SCFA-SCEL

Flight info

Callsign AVA9575
Flight time 1h 26m
Altitude 39000
Route FAGAS6 DOVRI V200 DOVKA/N0443F370 DCT ILSOT UL650 REBEP DCT SIMOK SIMOK6D
Aircraft A319/M-SDE3FGHIRWY/LB1

Departure

Time 2026-05-06 14:00
Airport Andrés Sabella Gálvez International Airport (SCFA)

Arrival

Time 2026-05-06 15:26
Airport Comodoro Arturo Merino Benítez International Airport (SCEL)
Time Latitude Longitude Altitude Speed Heading
2026-05-06 13:58 -23.43304 -70.44368 432 ft 0 kts 186°
2026-05-06 13:58 -23.43306 -70.44368 432 ft 2 kts 186°
2026-05-06 13:59 -23.43435 -70.44384 420 ft 45 kts 186°
2026-05-06 13:59 -23.43961 -70.44446 406 ft 106 kts 186°
2026-05-06 13:59 -23.44880 -70.44559 402 ft 155 kts 186°
2026-05-06 13:59 -23.45928 -70.44703 990 ft 158 kts 188°
2026-05-06 14:00 -23.47086 -70.44895 1359 ft 178 kts 189°
2026-05-06 14:00 -23.48357 -70.45145 1819 ft 193 kts 190°
2026-05-06 14:00 -23.49737 -70.45455 2284 ft 212 kts 191°
2026-05-06 14:00 -23.51224 -70.45826 2911 ft 227 kts 192°
2026-05-06 14:01 -23.52797 -70.46216 3632 ft 237 kts 188°
2026-05-06 14:01 -23.54467 -70.46370 4400 ft 245 kts 181°
2026-05-06 14:01 -23.56191 -70.46358 5189 ft 251 kts 179°
2026-05-06 14:01 -23.58012 -70.46367 5664 ft 273 kts 181°
2026-05-06 14:02 -23.59945 -70.46451 6382 ft 282 kts 183°
2026-05-06 14:02 -23.61916 -70.46578 7153 ft 287 kts 184°
2026-05-06 14:02 -23.63914 -70.46729 7948 ft 290 kts 185°
2026-05-06 14:02 -23.65934 -70.46895 8735 ft 293 kts 185°
2026-05-06 14:03 -23.67973 -70.47064 9520 ft 296 kts 185°
2026-05-06 14:03 -23.70034 -70.47234 10247 ft 301 kts 185°
2026-05-06 14:03 -23.72197 -70.47411 10430 ft 324 kts 185°
2026-05-06 14:03 -23.74523 -70.47598 10609 ft 344 kts 185°
2026-05-06 14:04 -23.76937 -70.47790 11098 ft 352 kts 185°
2026-05-06 14:04 -23.79384 -70.47984 11704 ft 355 kts 186°
2026-05-06 14:04 -23.81851 -70.48179 12310 ft 358 kts 186°
2026-05-06 14:04 -23.84342 -70.48377 12938 ft 361 kts 186°
2026-05-06 14:05 -23.86856 -70.48578 13571 ft 364 kts 187°
2026-05-06 14:05 -23.89387 -70.48781 14144 ft 367 kts 187°
2026-05-06 14:05 -23.91942 -70.48985 14691 ft 370 kts 187°
2026-05-06 14:05 -23.94519 -70.49190 15238 ft 373 kts 187°
2026-05-06 14:06 -23.97114 -70.49399 15790 ft 376 kts 187°
2026-05-06 14:06 -23.99727 -70.49609 16328 ft 380 kts 188°
2026-05-06 14:06 -24.02368 -70.49821 16890 ft 383 kts 188°
2026-05-06 14:06 -24.05031 -70.50034 17467 ft 386 kts 188°
2026-05-06 14:07 -24.07716 -70.50247 18054 ft 390 kts 188°
2026-05-06 14:07 -24.10423 -70.50462 18588 ft 393 kts 188°
2026-05-06 14:07 -24.13154 -70.50679 19094 ft 395 kts 188°
2026-05-06 14:07 -24.15904 -70.50898 19632 ft 398 kts 189°
2026-05-06 14:08 -24.18668 -70.51119 20152 ft 401 kts 189°
2026-05-06 14:08 -24.21453 -70.51342 20685 ft 403 kts 189°
2026-05-06 14:08 -24.24260 -70.51566 21241 ft 406 kts 189°
2026-05-06 14:08 -24.27080 -70.51792 21770 ft 409 kts 190°
2026-05-06 14:09 -24.29922 -70.52022 22271 ft 412 kts 190°
2026-05-06 14:09 -24.32785 -70.52252 22774 ft 414 kts 190°
2026-05-06 14:09 -24.35664 -70.52483 23282 ft 417 kts 190°
2026-05-06 14:09 -24.38563 -70.52715 23718 ft 421 kts 190°
2026-05-06 14:10 -24.41490 -70.52951 24099 ft 424 kts 191°
2026-05-06 14:10 -24.44441 -70.53191 24467 ft 428 kts 191°
2026-05-06 14:10 -24.47413 -70.53431 24824 ft 431 kts 191°
2026-05-06 14:10 -24.50412 -70.53675 25208 ft 435 kts 191°
2026-05-06 14:11 -24.53439 -70.53919 25596 ft 439 kts 191°
2026-05-06 14:11 -24.56491 -70.54165 25961 ft 443 kts 191°
2026-05-06 14:11 -24.59569 -70.54411 26311 ft 446 kts 191°
2026-05-06 14:11 -24.62668 -70.54661 26675 ft 450 kts 191°
2026-05-06 14:12 -24.65797 -70.54916 27044 ft 453 kts 191°
2026-05-06 14:12 -24.68947 -70.55172 27413 ft 456 kts 192°
2026-05-06 14:12 -24.72122 -70.55426 27770 ft 459 kts 192°
2026-05-06 14:12 -24.75314 -70.55681 28101 ft 463 kts 192°
2026-05-06 14:13 -24.78534 -70.55939 28413 ft 466 kts 192°
2026-05-06 14:13 -24.81771 -70.56199 28718 ft 469 kts 192°
2026-05-06 14:13 -24.85032 -70.56471 29022 ft 472 kts 192°
2026-05-06 14:13 -24.88306 -70.56757 29313 ft 475 kts 193°
2026-05-06 14:14 -24.91604 -70.57051 29601 ft 478 kts 193°
2026-05-06 14:14 -24.94922 -70.57347 29889 ft 481 kts 193°
2026-05-06 14:14 -24.98258 -70.57639 30230 ft 483 kts 193°
2026-05-06 14:14 -25.01602 -70.57924 30487 ft 485 kts 193°
2026-05-06 14:15 -25.04972 -70.58206 30740 ft 487 kts 193°
2026-05-06 14:15 -25.08350 -70.58487 31000 ft 489 kts 193°
2026-05-06 14:15 -25.11730 -70.58768 31358 ft 488 kts 193°
2026-05-06 14:15 -25.15110 -70.59052 31718 ft 487 kts 194°
2026-05-06 14:16 -25.18475 -70.59343 32073 ft 486 kts 194°
2026-05-06 14:16 -25.21843 -70.59636 32436 ft 486 kts 194°
2026-05-06 14:16 -25.25205 -70.59931 32831 ft 485 kts 194°
2026-05-06 14:16 -25.28566 -70.60225 33161 ft 486 kts 194°
2026-05-06 14:17 -25.31933 -70.60518 33509 ft 486 kts 194°
2026-05-06 14:17 -25.35296 -70.60810 33887 ft 486 kts 194°
2026-05-06 14:17 -25.38656 -70.61099 34247 ft 486 kts 194°
2026-05-06 14:17 -25.42015 -70.61386 34613 ft 484 kts 194°
2026-05-06 14:18 -25.45364 -70.61672 35014 ft 482 kts 194°
2026-05-06 14:18 -25.48691 -70.61960 35426 ft 479 kts 195°
2026-05-06 14:18 -25.51999 -70.62248 35845 ft 477 kts 195°
2026-05-06 14:18 -25.55288 -70.62534 36303 ft 474 kts 196°
2026-05-06 14:19 -25.58559 -70.62818 36718 ft 472 kts 196°
2026-05-06 14:19 -25.61814 -70.63098 37121 ft 469 kts 196°
2026-05-06 14:19 -25.65050 -70.63376 37520 ft 466 kts 196°
2026-05-06 14:19 -25.68268 -70.63654 37910 ft 464 kts 197°
2026-05-06 14:20 -25.71472 -70.63930 38278 ft 462 kts 197°
2026-05-06 14:20 -25.74659 -70.64210 38642 ft 459 kts 197°
2026-05-06 14:20 -25.77832 -70.64491 38968 ft 457 kts 197°
2026-05-06 14:20 -25.81004 -70.64771 39112 ft 458 kts 197°
2026-05-06 14:21 -25.87318 -70.65327 39144 ft 456 kts 197°
2026-05-06 14:21 -25.93622 -70.65881 39149 ft 456 kts 197°
2026-05-06 14:22 -25.99932 -70.66434 39146 ft 456 kts 197°
2026-05-06 14:22 -26.06234 -70.66988 39146 ft 455 kts 197°
2026-05-06 14:23 -26.12547 -70.67536 39151 ft 456 kts 197°
2026-05-06 14:23 -26.18861 -70.68080 39160 ft 457 kts 198°
2026-05-06 14:24 -26.25188 -70.68645 39146 ft 458 kts 198°
2026-05-06 14:24 -26.31536 -70.69214 39143 ft 459 kts 198°
2026-05-06 14:25 -26.37889 -70.69776 39144 ft 459 kts 198°
2026-05-06 14:25 -26.44259 -70.70333 39173 ft 460 kts 198°
2026-05-06 14:26 -26.50512 -70.71167 39140 ft 455 kts 202°
2026-05-06 14:26 -26.56780 -70.72333 39133 ft 454 kts 203°
2026-05-06 14:27 -26.59931 -70.72832 39130 ft 466 kts 196°
2026-05-06 14:27 -26.63232 -70.72717 39130 ft 487 kts 183°
2026-05-06 14:27 -26.66583 -70.71812 39131 ft 507 kts 169°
2026-05-06 14:27 -26.69817 -70.70093 39129 ft 524 kts 155°
2026-05-06 14:28 -26.72742 -70.67615 39163 ft 537 kts 142°
2026-05-06 14:28 -26.75398 -70.64654 39139 ft 541 kts 140°
2026-05-06 14:28 -26.80707 -70.58684 39118 ft 543 kts 140°
2026-05-06 14:29 -26.86049 -70.52706 39117 ft 545 kts 140°
2026-05-06 14:29 -26.91462 -70.46804 39107 ft 541 kts 148°
2026-05-06 14:30 -26.94482 -70.44385 39107 ft 530 kts 158°
2026-05-06 14:30 -26.97709 -70.42527 39113 ft 517 kts 168°
2026-05-06 14:30 -27.01056 -70.41232 39112 ft 504 kts 177°
2026-05-06 14:30 -27.04438 -70.40478 39113 ft 489 kts 186°
2026-05-06 14:31 -27.07776 -70.40234 39111 ft 475 kts 194°
2026-05-06 14:31 -27.11025 -70.40447 39116 ft 466 kts 199°
2026-05-06 14:31 -27.17480 -70.41062 39114 ft 467 kts 198°
2026-05-06 14:32 -27.23952 -70.41657 39125 ft 468 kts 198°
2026-05-06 14:32 -27.30425 -70.42246 39161 ft 468 kts 199°
2026-05-06 14:33 -27.36903 -70.42847 39160 ft 468 kts 199°
2026-05-06 14:33 -27.43372 -70.43455 39157 ft 467 kts 199°
2026-05-06 14:34 -27.49837 -70.44054 39152 ft 467 kts 199°
2026-05-06 14:34 -27.56305 -70.44658 39150 ft 467 kts 199°
2026-05-06 14:35 -27.62742 -70.45256 39153 ft 465 kts 199°
2026-05-06 14:35 -27.69174 -70.45852 39155 ft 465 kts 199°
2026-05-06 14:36 -27.75603 -70.46456 39154 ft 464 kts 199°
2026-05-06 14:36 -27.82030 -70.47054 39154 ft 465 kts 199°
2026-05-06 14:37 -27.88441 -70.47648 39147 ft 461 kts 200°
2026-05-06 14:37 -27.94812 -70.48243 39144 ft 461 kts 200°
2026-05-06 14:38 -28.01196 -70.48852 39149 ft 461 kts 200°
2026-05-06 14:38 -28.07578 -70.49461 39153 ft 461 kts 200°
2026-05-06 14:39 -28.13968 -70.50055 39158 ft 461 kts 200°
2026-05-06 14:39 -28.20325 -70.50648 39147 ft 459 kts 200°
2026-05-06 14:40 -28.26686 -70.51252 39152 ft 460 kts 201°
2026-05-06 14:40 -28.33054 -70.51853 39153 ft 460 kts 200°
2026-05-06 14:41 -28.39425 -70.52453 39219 ft 460 kts 201°
2026-05-06 14:41 -28.45769 -70.53055 39127 ft 455 kts 201°
2026-05-06 14:42 -28.52087 -70.53663 39144 ft 458 kts 201°
2026-05-06 14:42 -28.58432 -70.54272 39142 ft 459 kts 200°
2026-05-06 14:43 -28.64782 -70.54870 39150 ft 459 kts 200°
2026-05-06 14:43 -28.71133 -70.55468 39193 ft 458 kts 201°
2026-05-06 14:44 -28.77476 -70.56073 39182 ft 459 kts 201°
2026-05-06 14:45 -28.86993 -70.56972 39169 ft 458 kts 201°
2026-05-06 14:45 -28.93348 -70.57583 39166 ft 459 kts 201°
2026-05-06 14:46 -28.99697 -70.58191 39183 ft 459 kts 201°
2026-05-06 14:46 -29.06049 -70.58802 39173 ft 459 kts 201°
2026-05-06 14:47 -29.12414 -70.59411 39186 ft 460 kts 201°
2026-05-06 14:47 -29.18779 -70.60023 39191 ft 460 kts 201°
2026-05-06 14:48 -29.25126 -70.60632 39216 ft 460 kts 202°
2026-05-06 14:48 -29.31489 -70.61247 39183 ft 460 kts 201°
2026-05-06 14:49 -29.37846 -70.61858 39175 ft 459 kts 201°
2026-05-06 14:49 -29.44198 -70.62465 39158 ft 460 kts 201°
2026-05-06 14:50 -29.50575 -70.63083 39157 ft 461 kts 201°
2026-05-06 14:50 -29.56940 -70.63703 39158 ft 458 kts 201°
2026-05-06 14:51 -29.63271 -70.64316 39144 ft 457 kts 201°
2026-05-06 14:51 -29.69607 -70.64924 39141 ft 458 kts 201°
2026-05-06 14:52 -29.75950 -70.65540 39143 ft 459 kts 201°
2026-05-06 14:52 -29.82305 -70.66163 39143 ft 460 kts 201°
2026-05-06 14:53 -29.88662 -70.66781 39145 ft 460 kts 201°
2026-05-06 14:53 -29.95021 -70.67405 39150 ft 459 kts 201°
2026-05-06 14:54 -30.01381 -70.68029 39152 ft 460 kts 201°
2026-05-06 14:54 -30.07743 -70.68651 39193 ft 461 kts 202°
2026-05-06 14:55 -30.14121 -70.69273 39146 ft 460 kts 202°
2026-05-06 14:55 -30.20460 -70.69896 39152 ft 462 kts 202°
2026-05-06 14:56 -30.26891 -70.70525 39155 ft 462 kts 202°
2026-05-06 14:56 -30.33286 -70.71153 39162 ft 463 kts 202°
2026-05-06 14:57 -30.39670 -70.71778 39174 ft 460 kts 202°
2026-05-06 14:57 -30.46029 -70.72397 39166 ft 459 kts 202°
2026-05-06 14:58 -30.52382 -70.73025 39169 ft 459 kts 201°
2026-05-06 14:58 -30.58733 -70.73649 39166 ft 459 kts 201°
2026-05-06 14:59 -30.65091 -70.74286 39217 ft 460 kts 202°
2026-05-06 14:59 -30.71400 -70.74901 39157 ft 452 kts 202°
2026-05-06 15:00 -30.77696 -70.75540 39158 ft 457 kts 202°
2026-05-06 15:00 -30.84033 -70.76178 39174 ft 459 kts 201°
2026-05-06 15:01 -30.90384 -70.76800 39188 ft 459 kts 202°
2026-05-06 15:01 -30.96699 -70.77412 39159 ft 455 kts 202°
2026-05-06 15:02 -31.03003 -70.78046 39141 ft 455 kts 202°
2026-05-06 15:02 -31.09319 -70.78697 39176 ft 458 kts 202°
2026-05-06 15:03 -31.15654 -70.79333 39227 ft 456 kts 202°
2026-05-06 15:03 -31.21963 -70.79951 39189 ft 455 kts 202°
2026-05-06 15:04 -31.28239 -70.80575 39187 ft 453 kts 202°
2026-05-06 15:04 -31.34505 -70.81210 39191 ft 454 kts 202°
2026-05-06 15:05 -31.40782 -70.81840 39181 ft 454 kts 202°
2026-05-06 15:05 -31.47046 -70.82467 39188 ft 451 kts 199°
2026-05-06 15:06 -31.53290 -70.83096 39179 ft 452 kts 200°
2026-05-06 15:06 -31.59567 -70.83745 39173 ft 454 kts 200°
2026-05-06 15:07 -31.65856 -70.84376 39170 ft 456 kts 201°
2026-05-06 15:07 -31.72254 -70.84673 39203 ft 478 kts 188°
2026-05-06 15:07 -31.75582 -70.83991 39195 ft 494 kts 181°
2026-05-06 15:08 -31.78911 -70.83413 39054 ft 474 kts 193°
2026-05-06 15:08 -31.82143 -70.83539 38225 ft 460 kts 202°
2026-05-06 15:08 -31.85305 -70.84032 37167 ft 462 kts 204°
2026-05-06 15:08 -31.88504 -70.84595 36138 ft 468 kts 203°
2026-05-06 15:09 -31.91803 -70.84976 35123 ft 485 kts 198°
2026-05-06 15:09 -31.95214 -70.85071 34174 ft 498 kts 193°
2026-05-06 15:09 -31.98707 -70.84932 32955 ft 506 kts 189°
2026-05-06 15:09 -32.02229 -70.84653 31675 ft 509 kts 188°
2026-05-06 15:10 -32.05748 -70.84339 30547 ft 505 kts 188°
2026-05-06 15:10 -32.09218 -70.84062 29368 ft 496 kts 189°
2026-05-06 15:10 -32.12618 -70.83854 28265 ft 485 kts 189°
2026-05-06 15:10 -32.15948 -70.83715 27232 ft 474 kts 191°
2026-05-06 15:11 -32.19212 -70.83622 26205 ft 466 kts 191°
2026-05-06 15:11 -32.22372 -70.83542 25909 ft 444 kts 191°
2026-05-06 15:11 -32.25398 -70.83453 25334 ft 430 kts 191°
2026-05-06 15:11 -32.28362 -70.83361 24645 ft 422 kts 190°
2026-05-06 15:12 -32.31269 -70.83270 23910 ft 416 kts 191°
2026-05-06 15:12 -32.34130 -70.83174 23152 ft 409 kts 190°
2026-05-06 15:12 -32.36960 -70.83079 22289 ft 407 kts 190°
2026-05-06 15:12 -32.39744 -70.82985 21425 ft 405 kts 189°
2026-05-06 15:13 -32.42580 -70.82891 20581 ft 403 kts 189°
2026-05-06 15:13 -32.45370 -70.82798 19730 ft 402 kts 188°
2026-05-06 15:13 -32.48158 -70.82698 18887 ft 401 kts 187°
2026-05-06 15:13 -32.50934 -70.82598 17972 ft 399 kts 186°
2026-05-06 15:14 -32.53692 -70.82495 17249 ft 393 kts 186°
2026-05-06 15:14 -32.56417 -70.82391 16438 ft 390 kts 185°
2026-05-06 15:14 -32.59104 -70.82288 15727 ft 385 kts 185°
2026-05-06 15:14 -32.61739 -70.82187 15387 ft 370 kts 185°
2026-05-06 15:15 -32.64237 -70.82088 15255 ft 351 kts 186°
2026-05-06 15:15 -32.66595 -70.81994 15028 ft 328 kts 187°
2026-05-06 15:15 -32.68838 -70.81909 14515 ft 319 kts 186°
2026-05-06 15:15 -32.71038 -70.81833 14068 ft 314 kts 186°
2026-05-06 15:16 -32.73192 -70.81763 13542 ft 308 kts 185°
2026-05-06 15:16 -32.75309 -70.81693 13168 ft 302 kts 185°
2026-05-06 15:16 -32.77401 -70.81623 12880 ft 301 kts 185°
2026-05-06 15:16 -32.79503 -70.81553 12469 ft 305 kts 185°
2026-05-06 15:17 -32.81600 -70.81482 12279 ft 301 kts 184°
2026-05-06 15:17 -32.83684 -70.81407 12026 ft 301 kts 184°
2026-05-06 15:17 -32.85778 -70.81331 11722 ft 300 kts 184°
2026-05-06 15:17 -32.87861 -70.81256 11412 ft 300 kts 184°
2026-05-06 15:18 -32.89937 -70.81182 11130 ft 299 kts 184°
2026-05-06 15:18 -32.92002 -70.81137 10810 ft 294 kts 189°
2026-05-06 15:18 -32.94011 -70.81414 10359 ft 290 kts 193°
2026-05-06 15:18 -32.96007 -70.81722 9888 ft 289 kts 193°
2026-05-06 15:19 -32.97994 -70.82028 9403 ft 289 kts 193°
2026-05-06 15:19 -32.99982 -70.82326 8912 ft 288 kts 191°
2026-05-06 15:19 -33.01988 -70.82319 8394 ft 290 kts 181°
2026-05-06 15:19 -33.03995 -70.82201 7893 ft 289 kts 180°
2026-05-06 15:20 -33.05986 -70.82088 7397 ft 286 kts 180°
2026-05-06 15:20 -33.07953 -70.81976 6726 ft 282 kts 179°
2026-05-06 15:20 -33.09905 -70.81864 5997 ft 280 kts 179°
2026-05-06 15:20 -33.11805 -70.81752 5577 ft 264 kts 178°
2026-05-06 15:21 -33.13582 -70.81637 5420 ft 250 kts 179°
2026-05-06 15:21 -33.15299 -70.81541 5310 ft 246 kts 179°
2026-05-06 15:21 -33.17000 -70.81451 5204 ft 244 kts 179°
2026-05-06 15:21 -33.18681 -70.81362 5085 ft 240 kts 178°
2026-05-06 15:22 -33.20356 -70.81273 4838 ft 244 kts 178°
2026-05-06 15:22 -33.22021 -70.81183 4517 ft 237 kts 179°
2026-05-06 15:22 -33.23659 -70.81090 4174 ft 235 kts 178°
2026-05-06 15:22 -33.25260 -70.80978 3827 ft 227 kts 179°
2026-05-06 15:23 -33.26801 -70.80852 3574 ft 216 kts 179°
2026-05-06 15:23 -33.28238 -70.80756 3470 ft 197 kts 179°
2026-05-06 15:23 -33.29541 -70.80694 3266 ft 182 kts 180°
2026-05-06 15:23 -33.30787 -70.80669 2899 ft 178 kts 181°
2026-05-06 15:24 -33.32015 -70.80630 2515 ft 176 kts 180°
2026-05-06 15:24 -33.33209 -70.80567 2237 ft 166 kts 180°
2026-05-06 15:24 -33.34319 -70.80515 2046 ft 154 kts 180°
2026-05-06 15:24 -33.35360 -70.80467 1840 ft 146 kts 180°
2026-05-06 15:25 -33.36366 -70.80421 1712 ft 147 kts 179°
2026-05-06 15:25 -33.37397 -70.80360 1574 ft 146 kts 179°
2026-05-06 15:25 -33.38287 -70.80310 1557 ft 106 kts 177°
2026-05-06 15:25 -33.38849 -70.80278 1560 ft 56 kts 177°
2026-05-06 15:26 -33.39151 -70.80262 1561 ft 42 kts 177°
2026-05-06 15:26 -33.39389 -70.80155 1559 ft 21 kts 147°
2026-05-06 15:26 -33.39433 -70.80121 1559 ft 4 kts 147°
2026-05-06 15:26 -33.39464 -70.80098 1559 ft 6 kts 147°
2026-05-06 15:27 -33.39506 -70.80067 1559 ft 8 kts 150°
2026-05-06 15:27 -33.39549 -70.80044 1560 ft 0 kts 162°
2026-05-06 15:27 -33.39555 -70.80042 1560 ft 0 kts 162°
2026-05-06 15:27 -33.39560 -70.80041 1560 ft 3 kts 165°
2026-05-06 15:28 -33.39570 -70.80037 1560 ft 0 kts 148°
2026-05-06 15:28 -33.39566 -70.80022 1560 ft 6 kts 75°
2026-05-06 15:28 -33.39537 -70.79937 1560 ft 15 kts 70°
2026-05-06 15:28 -33.39527 -70.79814 1560 ft 14 kts 88°
2026-05-06 15:29 -33.39524 -70.79686 1560 ft 17 kts 88°
2026-05-06 15:29 -33.39555 -70.79602 1560 ft 11 kts 153°
2026-05-06 15:29 -33.39612 -70.79603 1560 ft 0 kts 181°
2026-05-06 15:33 -33.39611 -70.79603 1560 ft 0 kts 181°